Flag for U.S.A. Weather past 2 weeks in Portland, Oregon, U.S.A.

Now
49 °F

Passing clouds.


Feels Like: 47 °F
Forecast: 47 / 66 °F
Wind: 5 mph from Southeast

Location: Portland International Airport

Current Time: Mar 29, 2015 at 2:42:45 AM

Latest Report: Mar 29, 2015 at 1:53 AM


Visibility: 10 mi

Pressure: 30.34 "Hg

Humidity: 84%

Dew point: 44 °F

Location of PortlandLocation

Historic Weather in Portland — Graph

°F

Portland temperature yesterday

Maximum temperature yesterday: 60 °F (at 2:53 PM)
Minimum temperature yesterday: 49 °F (at 6:53 AM)
Average temperature yesterday: 55 °F

Past Weeks' High & Low Weather Summary

 TemperatureHumidityPressure
High73 °F (Mar 26, 4:53 PM)100% (Mar 14, 3:53 AM)30.39 "Hg (Mar 14, 3:53 AM)
Low38 °F (Mar 16, 5:53 AM)37% (Mar 26, 4:53 PM)29.67 "Hg (Mar 15, 12:53 PM)
Average53 °F81%30.11 "Hg
* Reported Mar 14 12:53 AM — Mar 29 12:53 AM, Portland, Weather by CustomWeather, © 2015

Note: Actual official high and low records may vary slightly from our data, if they occured in-between our weather recording intervals... More about our weather records

Advertising

Portland weather history for previous 24 hours

 ConditionsComfort  
Time TempWeatherWind HumidityBarometerVisibility
12:53 AM
Sun, Mar 29
52 °FOvercast.5 mph75%30.35 "Hg10 mi
11:53 PM
Sat, Mar 28
52 °FOvercast.3 mph77%30.34 "Hg10 mi
10:53 PM52 °FPassing clouds.3 mph75%30.34 "Hg10 mi
9:53 PM52 °FPassing clouds.8 mph72%30.32 "Hg10 mi
8:53 PM54 °FPassing clouds.5 mph67%30.33 "Hg10 mi
7:53 PM58 °FPartly sunny.No wind54%30.34 "Hg10 mi
6:53 PM59 °FBroken clouds.7 mph54%30.34 "Hg10 mi
5:53 PM60 °FPartly sunny.9 mph49%30.35 "Hg10 mi
4:53 PM60 °FPartly sunny.8 mph49%30.36 "Hg10 mi
3:53 PM60 °FPartly sunny.8 mph52%30.36 "Hg10 mi
2:53 PM60 °FBroken clouds.9 mph49%30.37 "Hg10 mi
1:53 PM59 °FBroken clouds.12 mph58%30.37 "Hg10 mi
12:53 PM58 °FScattered clouds.9 mph60%30.37 "Hg10 mi
11:53 AM58 °FPartly sunny.13 mph58%30.39 "Hg10 mi
10:53 AM56 °FCloudy.12 mph67%30.39 "Hg10 mi
9:53 AM54 °FPartly sunny.15 mph74%30.37 "Hg10 mi
8:53 AM52 °FPartly sunny.9 mph80%30.38 "Hg10 mi
7:53 AM50 °FPassing clouds.6 mph86%30.35 "Hg10 mi
6:53 AM49 °FPassing clouds.12 mph86%30.31 "Hg10 mi
5:53 AM50 °FPassing clouds.13 mph83%30.28 "Hg10 mi
4:53 AM50 °FMostly cloudy.13 mph86%30.27 "Hg10 mi
3:53 AM52 °FMostly cloudy.8 mph77%30.24 "Hg10 mi
2:53 AM52 °FMostly cloudy.8 mph77%30.23 "Hg10 mi
Weather by CustomWeather, © 2015

See weather overviewHow to use our weather pages